Regional Weather Roundup
Issued by NWS

Home | Current Version | Previous Version | Text Only | Print | Product List | Glossary Off
Versions: 1 2 3 4 5 6 7 8 9 10 11 12 13 14 15 16 17 18 19 20 21 22 23 24 25 26 27 28 29 30 31 32 33 34 35 36 37 38 39 40 41 42 43 44 45 46 47 48 49 50

000
ASUS43 KBIS 201510
RWRND

NORTH DAKOTA REGIONAL WEATHER ROUNDUP
NATIONAL WEATHER SERVICE BISMARCK ND
900 AM CST MON FEB 20 2017

NOTE: "FAIR" INDICATES FEW OR NO CLOUDS BELOW 12,000 FEET WITH NO
SIGNIFICANT WEATHER AND/OR OBSTRUCTIONS TO VISIBILITY.


NDZ001>003-009>011-017-201600-
NORTHWEST NORTH DAKOTA

CITY           SKY/WX    TMP DP  RH WIND       PRES   REMARKS
WILLISTON      FAIR      36  32  85 S7        29.74R
MINOT          CLOUDY    35  33  92 W12       29.69S FOG
MINOT AFB      CLOUDY    32  32 100 W9        29.69R FOG
$$

NDZ018>021-031>035-040>046-201600-
SOUTHWEST NORTH DAKOTA

CITY           SKY/WX    TMP DP  RH WIND       PRES   REMARKS
BISMARCK       CLOUDY    37  35  92 W8        29.72R FOG
DICKINSON      FAIR      36  33  89 W10       29.71R
GARRISON         N/A     34  32  92 NW8       29.70R
HETTINGER ARPT MOSUNNY   39  34  82 NW6       29.75R
$$

NDZ004>008-012>016-024-026-027-054-201600-
NORTHEAST NORTH DAKOTA

CITY           SKY/WX    TMP DP  RH WIND       PRES   REMARKS
GRAND FORKS    LGT RAIN  40  36  86 SE5       29.60F VSB 1/4
GRND FRKS AFB  FOG       39  39 100 SE7       29.59F VSB 1/4
DEVILS LAKE    CLOUDY    33  33 100 W13       29.62F FOG
$$

NDZ022-023-025-028>030-036>039-047>053-201600-
SOUTHEAST NORTH DAKOTA

CITY           SKY/WX    TMP DP  RH WIND       PRES   REMARKS
FARGO          RAIN      50  49  96 S12       29.64R FOG
JAMESTOWN      CLOUDY    37  34  89 NW14      29.61F
$$




USA.gov is the U.S. government's official web portal to all federal, state and local government web resources and services.